Location: Ripley
(48.3812°N, 115.4473°W)
Time: 20:37:05
(UTC+00:00)

RS-15 - Pass Details

Date: 02 July 2022
Orbit: 1881 x 2163 km, 64.8° (Epoch: 19 August)

Event Time Altitude Azimuth Distance (km) Brightness Sun altitude
Rises 05:25:37 0° 313° (NW) 5,688 12.2 -12.0°
Reaches altitude 10° 05:29:15 10° 318° (NW) 4,690 11.5 -12.3°
Maximum altitude 05:41:27 57° 37° (NE) 2,441 8.7 -13.3°
Drops below altitude 10° 05:53:20 10° 115° (ESE) 4,582 9.5 -14.3°
Enters shadow 05:54:47 - 117° (ESE) 4,983 9.7 -14.4°
